QPF
0.00 0.00 0.00 0.00 0.00 0.00 0.00 0.00 0.00 0.00 0.00 0.00 0.00 0.00 0.00 0.00 0.00 0.00 0.00 0.00 0.01 0.01 0.02 0.01 0.00 0.00 0.00 0.00 0.00 0.00 0.00 0.00
0.00 0.00 0.00 0.00 0.00 0.00 0.00 0.00 0.00 0.00 0.00 0.00 0.00 0.00 0.00 0.00 0.00 0.00 0.00 0.00 0.00 0.01 0.02 0.02 0.00 0.00 0.00 0.00 0.00 0.00 0.00 0.00
0.00 0.01 0.00 0.00 0.00 0.00 0.00 0.00 0.00 0.00 0.00 0.00 0.00 0.00 0.00 0.00 0.00 0.00 0.00 0.00 0.00 0.00 0.01 0.01 0.00 0.00 0.00 0.00 0.00 0.00 0.00 0.00
0.00 0.01 0.01 0.01 0.00 0.00 0.00 0.00 0.00 0.00 0.00 0.00 0.00 0.00 0.00 0.00 0.00 0.00 0.00 0.00 0.00 0.00 0.00 0.01 0.01 0.01 0.00 0.00 0.00 0.00 0.01 0.01
0.00 0.00 0.01 0.02 0.01 0.01 0.00 0.00 0.00 0.00 0.00 0.00 0.00 0.00 0.00 0.00 0.00 0.00 0.00 0.00 0.00 0.00 0.00 0.00 0.00 0.00 0.02 0.01 0.00 0.00 0.01 0.01
0.00 0.01 0.02 0.02 0.05 0.01 0.00 0.02 0.00 0.00 0.00 0.00 0.00 0.00 0.00 0.00 0.00 0.00 0.00 0.00 0.00 0.00 0.00 0.00 0.00 0.00 0.02 0.03 0.02 0.02 0.02 0.03
0.00 0.03 0.04 0.06 0.14 0.12 0.06 0.03 0.04 0.00 0.02 0.00 0.00 0.00 0.00 0.00 0.00 0.00 0.00 0.00 0.00 0.00 0.00 0.00 0.00 0.00 0.01 0.03 0.04 0.03 0.06 0.13
0.00 0.00 0.00 0.00 0.03 0.11 0.10 0.09 0.08 0.02 0.00 0.00 0.00 0.00 0.00 0.00 0.00 0.00 0.00 0.00 0.00 0.00 0.00 0.01 0.02 0.01 0.01 0.02 0.04 0.03 0.04 0.07
0.00 0.00 0.00 0.00 0.00 0.02 0.04 0.05 0.06 0.04 0.00 0.00 0.00 0.00 0.00 0.00 0.00 0.00 0.00 0.00 0.00 0.00 0.01 0.03 0.01 0.01 0.00 0.01 0.02 0.02 0.02 0.02
0.00 0.00 0.00 0.00 0.00 0.00 0.00 0.01 0.00 0.01 0.00 0.00 0.00 0.00 0.00 0.00 0.00 0.00 0.00 0.00 0.01 0.00 0.00 0.01 0.01 0.01 0.00 0.00 0.01 0.02 0.02 0.01
0.00 0.00 0.00 0.00 0.00 0.00 0.00 0.00 0.00 0.00 0.00 0.00 0.01 0.00 0.00 0.00 0.00 0.00 0.00 0.00 0.01 0.00 0.00 0.00 0.00 0.01 0.01 0.00 0.01 0.02 0.03 0.02
0.00 0.00 0.00 0.00 0.00 0.00 0.00 0.00 0.00 0.00 0.00 0.00 0.02 0.05 0.00 0.00 0.00 0.00 0.00 0.00 0.00 0.00 0.00 0.00 0.00 0.01 0.01 0.01 0.01 0.02 0.02 0.02
0.00 0.00 0.00 0.00 0.00 0.00 0.00 0.00 0.00 0.00 0.00 0.00 0.01 0.08 0.03 0.00 0.00 0.00 0.00 0.00 0.00 0.00 0.00 0.00 0.00 0.01 0.01 0.01 0.00 0.01 0.02 0.00
0.00 0.00 0.00 0.00 0.00 0.00 0.00 0.00 0.00 0.00 0.00 0.00 0.00 0.04 0.13 0.07 0.05 0.05 0.06 0.03 0.00 0.00 0.00 0.00 0.01 0.00 0.01 0.00 0.00 0.00 0.00 0.01
0.00 0.00 0.00 0.00 0.00 0.00 0.00 0.00 0.00 0.00 0.00 0.00 0.00 0.01 0.04 0.04 0.03 0.09 0.26 0.43 0.34 0.05 0.01 0.01 0.00 0.01 0.00 0.00 0.00 0.00 0.00 0.00
0.00 0.00 0.00 0.00 0.00 0.00 0.00 0.00 0.00 0.00 0.00 0.00 0.00 0.00 0.04 0.05 0.04 0.07 0.14 0.18 0.18 0.20 0.08 0.01 0.00 0.00 0.01 0.01 0.00 0.00 0.00 0.00
0.00 0.00 0.00 0.00 0.00 0.00 0.00 0.00 0.00 0.00 0.00 0.00 0.00 0.00 0.01 0.02 0.01 0.01 0.05 0.08 0.08 0.10 0.05 0.01 0.02 0.00 0.00 0.00 0.00 0.01 0.00 0.00
0.00 0.00 0.00 0.00 0.00 0.00 0.00 0.00 0.00 0.00 0.00 0.00 0.00 0.03 0.06 0.08 0.08 0.04 0.02 0.04 0.05 0.14 0.21 0.15 0.10 0.06 0.02 0.00 0.00 0.00 0.00 0.00
0.00 0.00 0.00 0.00 0.00 0.00 0.00 0.00 0.00 0.00 0.00 0.00 0.03 0.17 0.24 0.26 0.15 0.06 0.04 0.01 0.05 0.06 0.16 0.23 0.21 0.09 0.03 0.01 0.00 0.00 0.00 0.00
0.00 0.00 0.00 0.00 0.00 0.00 0.00 0.00 0.01 0.00 0.00 0.00 0.01 0.06 0.07 0.22 0.24 0.09 0.03 0.03 0.13 0.22 0.25 0.16 0.11 0.24 0.14 0.07 0.05 0.01 0.02 0.00
MSLP
1005.58 1006.03 1006.62 1007.03 1007.33 1007.72 1007.99 1008.28 1008.63 1008.93 1009.21 1009.58 1009.86 1010.24 1010.62 1011.09 1011.37 1011.74 1012.00 1012.32 1012.64 1012.81 1013.06 1013.48 1014.00 1014.31 1014.44 1014.56 1014.59 1014.54 1014.25 1013.82
1005.37 1005.74 1006.31 1006.92 1007.23 1007.74 1008.06 1008.31 1008.57 1008.85 1009.22 1009.50 1009.82 1010.30 1010.60 1011.04 1011.29 1011.67 1011.97 1012.28 1012.56 1012.73 1013.03 1013.23 1013.49 1014.19 1014.50 1014.57 1014.61 1014.51 1014.38 1013.92
1005.24 1005.74 1006.08 1006.50 1006.82 1007.44 1008.03 1008.32 1008.63 1008.93 1009.23 1009.52 1009.82 1010.01 1010.34 1010.75 1011.06 1011.36 1011.83 1012.29 1012.53 1012.73 1012.93 1013.35 1013.58 1013.71 1014.35 1014.61 1014.68 1014.54 1014.19 1014.07
1004.90 1005.55 1006.12 1006.33 1006.29 1006.88 1007.53 1008.00 1008.38 1008.65 1008.88 1009.30 1009.58 1009.67 1009.78 1010.12 1010.51 1011.03 1011.40 1011.92 1012.34 1012.58 1012.81 1013.08 1013.52 1013.77 1013.85 1014.46 1014.63 1014.36 1014.22 1013.96
1004.61 1005.12 1005.74 1006.35 1006.45 1006.77 1007.01 1007.31 1007.80 1008.17 1008.39 1008.60 1009.07 1009.22 1009.28 1009.54 1009.90 1010.45 1011.01 1011.61 1012.10 1012.58 1012.85 1012.99 1013.16 1013.46 1013.39 1013.67 1013.92 1014.13 1014.04 1013.85
1004.07 1004.77 1005.58 1006.00 1006.53 1006.69 1006.85 1006.85 1007.06 1007.57 1007.81 1008.10 1008.49 1009.03 1009.13 1009.17 1009.49 1009.85 1010.34 1010.72 1011.35 1011.64 1012.08 1012.48 1012.51 1012.54 1012.93 1013.19 1013.23 1013.58 1013.76 1013.77
1004.54 1005.14 1005.52 1005.65 1006.19 1006.70 1006.77 1006.69 1006.63 1006.73 1007.06 1007.36 1007.68 1008.23 1008.48 1008.72 1008.85 1008.99 1009.56 1009.87 1010.41 1011.00 1011.37 1011.75 1012.04 1012.09 1012.19 1012.56 1013.01 1013.10 1013.34 1013.79
1004.87 1005.27 1005.66 1005.84 1005.88 1006.13 1006.53 1006.50 1006.34 1006.45 1006.61 1006.90 1007.27 1007.42 1007.94 1008.08 1008.25 1008.56 1008.91 1009.05 1009.56 1010.11 1010.60 1011.18 1011.45 1011.75 1012.14 1012.11 1012.56 1012.95 1012.98 1013.38
1005.50 1005.86 1006.01 1006.15 1006.08 1006.07 1006.06 1006.15 1006.39 1006.33 1006.38 1006.41 1006.84 1007.15 1007.52 1007.61 1007.76 1007.84 1008.17 1008.33 1008.78 1009.35 1009.88 1010.53 1011.09 1011.39 1011.80 1012.18 1012.43 1012.55 1012.87 1013.08
1006.14 1006.43 1006.56 1006.44 1006.32 1006.16 1006.12 1006.16 1005.74 1005.75 1005.82 1005.73 1006.12 1006.56 1007.02 1007.51 1007.56 1007.47 1007.57 1007.94 1008.39 1008.93 1009.45 1010.03 1010.60 1011.13 1011.58 1011.99 1012.30 1012.53 1012.67 1012.82
1006.71 1006.87 1006.92 1006.92 1006.75 1006.55 1006.33 1006.05 1005.87 1005.42 1005.31 1005.37 1005.34 1005.92 1006.40 1007.28 1007.28 1007.13 1007.29 1007.71 1008.11 1008.50 1008.98 1009.33 1010.18 1010.81 1011.20 1011.63 1012.07 1012.43 1012.77 1012.79
1007.11 1007.26 1007.47 1007.36 1007.09 1006.70 1006.40 1006.14 1005.80 1005.53 1004.99 1004.75 1004.81 1005.30 1005.65 1006.25 1006.65 1006.67 1006.93 1007.23 1007.63 1008.15 1008.51 1008.92 1009.43 1010.22 1010.91 1011.29 1011.73 1012.28 1012.54 1012.78
1007.65 1007.74 1007.89 1007.87 1007.47 1007.21 1006.88 1006.41 1005.83 1005.18 1004.77 1004.44 1004.13 1004.34 1004.81 1005.32 1005.63 1006.15 1006.58 1006.72 1007.12 1007.54 1008.23 1008.70 1009.24 1009.84 1010.86 1011.39 1011.97 1012.02 1012.39 1012.63
1008.06 1008.25 1008.30 1008.38 1008.08 1007.77 1007.46 1007.18 1006.61 1005.94 1005.18 1004.47 1003.84 1003.46 1003.67 1004.56 1004.83 1005.10 1005.90 1006.35 1006.60 1006.69 1007.22 1008.25 1008.73 1009.02 1010.48 1011.45 1012.06 1012.53 1012.19 1012.34
1008.42 1008.64 1008.88 1008.83 1008.53 1008.19 1007.71 1007.23 1006.57 1005.72 1005.02 1004.14 1003.46 1002.65 1002.76 1003.21 1004.13 1004.45 1004.85 1005.44 1004.08 1006.98 1007.27 1007.41 1008.05 1008.39 1009.41 1010.66 1011.50 1011.74 1011.93 1011.97
1009.05 1009.15 1009.02 1008.83 1008.98 1008.90 1008.76 1008.19 1007.43 1006.73 1005.64 1004.35 1002.92 1001.97 1001.67 1001.99 1002.56 1003.29 1004.02 1004.45 1005.95 1006.31 1006.74 1007.35 1007.47 1007.87 1009.28 1009.90 1009.40 1010.50 1011.11 1011.79
1009.58 1009.84 1009.70 1009.60 1009.43 1009.64 1009.53 1009.02 1008.18 1007.13 1006.06 1004.61 1003.25 1002.01 1000.56 1000.59 1000.98 1001.86 1002.59 1003.44 1004.75 1004.63 1005.49 1006.49 1007.04 1007.23 1008.34 1009.76 1009.62 1010.00 1010.18 1010.41
1010.26 1010.32 1010.35 1010.30 1010.13 1010.17 1010.04 1009.37 1008.35 1007.31 1006.37 1005.02 1003.44 1001.58 1000.41 999.82 1000.27 1001.11 1001.53 1002.31 1003.23 1003.50 1003.62 1005.83 1006.24 1006.16 1006.47 1008.04 1008.60 1009.49 1009.56 1009.77
1010.64 1010.55 1010.65 1010.92 1010.58 1010.55 1010.17 1009.39 1008.39 1007.25 1006.20 1005.02 1003.59 1001.65 1000.76 1000.46 998.79 1000.51 1001.00 1001.23 1002.29 1002.99 1004.00 1002.73 1004.95 1005.49 1005.66 1005.78 1007.16 1008.40 1008.99 1009.10
1011.00 1010.92 1011.35 1011.50 1010.92 1010.51 1009.97 1009.15 1008.04 1006.73 1005.57 1004.38 1002.97 1001.24 1000.86 1000.20 1000.56 999.81 1000.14 1000.60 1001.96 1002.67 1003.30 1004.26 1004.06 1005.51 1005.27 1005.69 1007.14 1006.54 1008.19 1008.38
Thickness
5770 5765 5760 5758 5756 5752 5750 5748 5745 5743 5741 5739 5737 5734 5731 5727 5725 5722 5720 5718 5716 5715 5714 5711 5707 5704 5703 5702 5704 5705 5710 5714
5765 5762 5757 5751 5749 5745 5743 5741 5739 5737 5734 5733 5732 5728 5726 5722 5720 5717 5715 5713 5712 5711 5709 5708 5707 5701 5699 5698 5700 5700 5703 5708
5758 5755 5753 5748 5745 5741 5736 5735 5732 5730 5728 5727 5726 5724 5722 5718 5716 5714 5711 5708 5707 5705 5705 5702 5700 5700 5694 5694 5695 5695 5699 5700
5753 5747 5745 5743 5743 5739 5733 5729 5727 5725 5724 5722 5721 5720 5720 5717 5714 5711 5709 5705 5703 5702 5701 5700 5698 5694 5693 5689 5689 5691 5693 5695
5747 5743 5739 5735 5734 5733 5730 5728 5723 5721 5721 5720 5718 5717 5718 5717 5714 5710 5705 5701 5698 5695 5695 5694 5694 5691 5691 5689 5689 5687 5689 5690
5744 5740 5732 5729 5725 5725 5724 5724 5723 5720 5718 5716 5715 5712 5713 5715 5712 5709 5704 5702 5698 5697 5694 5691 5693 5694 5690 5688 5689 5686 5685 5684
5727 5728 5724 5724 5719 5716 5717 5718 5719 5720 5716 5715 5714 5712 5711 5711 5712 5709 5705 5702 5700 5696 5694 5692 5691 5691 5691 5689 5685 5684 5682 5678
5714 5713 5713 5713 5714 5711 5709 5711 5713 5714 5712 5711 5709 5710 5708 5708 5708 5706 5704 5704 5700 5696 5693 5689 5689 5688 5686 5686 5682 5680 5679 5676
5701 5698 5699 5701 5703 5703 5704 5704 5704 5705 5707 5706 5704 5703 5703 5704 5703 5704 5701 5701 5698 5694 5691 5687 5684 5685 5682 5680 5677 5676 5675 5672
5685 5685 5685 5686 5690 5693 5695 5695 5700 5701 5702 5702 5702 5700 5695 5695 5696 5698 5698 5695 5694 5691 5685 5682 5679 5676 5673 5671 5671 5670 5669 5668
5668 5669 5671 5674 5676 5679 5682 5686 5687 5693 5696 5696 5698 5696 5692 5686 5688 5692 5690 5687 5686 5684 5680 5680 5673 5670 5668 5666 5665 5662 5660 5661
5656 5656 5655 5658 5662 5667 5671 5673 5677 5681 5688 5692 5693 5690 5688 5684 5683 5685 5685 5682 5678 5677 5673 5673 5670 5665 5661 5661 5658 5656 5655 5654
5640 5641 5642 5643 5647 5650 5654 5659 5666 5674 5680 5685 5689 5687 5685 5681 5680 5677 5675 5672 5671 5671 5664 5663 5661 5658 5649 5649 5646 5649 5648 5646
5627 5627 5628 5629 5633 5637 5640 5643 5650 5658 5665 5672 5681 5684 5684 5675 5675 5674 5667 5660 5658 5661 5663 5656 5654 5655 5641 5635 5631 5633 5641 5642
5614 5614 5613 5615 5620 5623 5629 5635 5641 5648 5653 5660 5668 5679 5678 5675 5668 5665 5665 5656 5632 5640 5645 5650 5647 5648 5644 5632 5622 5625 5632 5636
5599 5599 5603 5606 5606 5607 5609 5615 5622 5627 5635 5646 5658 5668 5670 5667 5663 5657 5654 5648 5639 5638 5629 5635 5639 5638 5633 5632 5640 5629 5626 5625
5584 5583 5587 5590 5593 5590 5591 5595 5603 5612 5618 5629 5638 5648 5661 5659 5653 5645 5642 5640 5634 5638 5635 5632 5629 5635 5631 5620 5625 5624 5627 5629
5567 5569 5570 5572 5575 5574 5576 5581 5589 5596 5600 5607 5618 5633 5643 5640 5637 5633 5635 5632 5632 5637 5639 5621 5625 5633 5638 5627 5627 5617 5620 5621
5555 5558 5558 5556 5560 5560 5563 5569 5576 5582 5586 5591 5600 5619 5622 5620 5623 5624 5627 5628 5625 5626 5619 5624 5618 5623 5631 5637 5626 5619 5618 5619
5542 5546 5542 5541 5547 5550 5553 5559 5566 5573 5577 5584 5593 5610 5607 5611 5603 5617 5624 5625 5617 5614 5613 5612 5621 5615 5624 5623 5613 5626 5614 5615